SQ5OUZ-1 Weather Reports


time (UTC)temp
C
wind
direction
speed
KPH
gust
KPH
rain 1hr
cm
rain 24hr
cm
rain mn
cm
humidity
%
barometer
mb
20260905223002 13 0 0.0 0.0 0.00 0.00 0.00 82 1017.8
20260905221458 13 0 0.0 0.0 0.00 0.00 0.00 81 1017.8
20260905215955 13 0 0.0 0.0 0.00 0.00 0.00 80 1017.6
20260905214447 14 0 0.0 0.0 0.00 0.00 0.00 79 1017.6
20260905212943 14 0 0.0 0.0 0.00 0.00 0.00 78 1017.4
20260905211440 14 0 0.0 0.0 0.00 0.00 0.00 78 1017.4
20260905205937 14 0 0.0 0.0 0.00 0.00 0.00 78 1017.2
20260905204434 14 0 0.0 0.0 0.00 0.00 0.00 78 1017.0
20260905202930 14 0 0.0 0.0 0.00 0.00 0.00 79 1017.1
20260905201427 14 0 0.0 0.0 0.00 0.00 0.00 78 1016.9
20260905195924 14 0 0.0 0.0 0.00 0.00 0.00 86 1017.1
20260905194417 14 0 0.0 0.0 0.00 0.00 0.00 86 1016.9
20260905192913 14 0 0.0 0.0 0.00 0.00 0.00 86 1016.9
20260905191410 14 0 0.0 0.0 0.00 0.00 0.00 85 1017.0
20260905185907 14 0 0.0 0.0 0.00 0.00 0.00 85 1017.1
20260905184404 14 0 0.0 0.0 0.00 0.00 0.00 83 1017.0
20260905182900 15 0 0.0 0.0 0.00 0.00 0.00 81 1017.3
20260905181357 15 0 0.0 0.0 0.00 0.00 0.00 70 1017.5
20260905175854 16 0 0.0 0.0 0.00 0.00 0.00 63 1017.2
20260905174351 16 0 0.0 0.0 0.00 0.00 0.00 63 1016.7
20260905172847 16 0 0.0 0.0 0.00 0.00 0.00 63 1016.6
20260905171343 16 0 0.0 0.0 0.00 0.00 0.00 61 1016.3
20260905165012 16 0 0.0 0.0 0.00 0.00 0.00 57 1016.5
20260905163509 17 0 0.0 0.0 0.00 0.00 0.00 55 1016.4
20260905162005 18 0 0.0 0.0 0.00 0.00 0.00 52 1016.2
20260905160501 20 0 0.0 0.0 0.00 0.00 0.00 45 1016.5
20260905154958 20 0 0.0 0.0 0.00 0.00 0.00 44 1015.8
20260905151947 20 0 0.0 0.0 0.00 0.00 0.00 42 1015.5
20260905150444 21 0 0.0 0.0 0.00 0.00 0.00 40 1015.4
20260905144941 21 0 0.0 0.0 0.00 0.00 0.00 39 1015.3
20260905143438 21 0 0.0 0.0 0.00 0.00 0.00 38 1015.4
20260905141934 21 0 0.0 0.0 0.00 0.00 0.00 38 1015.4
20260905140431 21 0 0.0 0.0 0.00 0.00 0.00 38 1015.2
20260905134928 21 0 0.0 0.0 0.00 0.00 0.00 39 1015.2
20260905133425 21 0 0.0 0.0 0.00 0.00 0.00 38 1015.2
20260905131921 22 0 0.0 0.0 0.00 0.00 0.00 39 1015.1
20260905130418 22 0 0.0 0.0 0.00 0.00 0.00 39 1015.1
20260905124915 21 0 0.0 0.0 0.00 0.00 0.00 42 1015.1
20260905123406 21 0 0.0 0.0 0.00 0.00 0.00 43 1015.2
20260905121903 21 0 0.0 0.0 0.00 0.00 0.00 41 1015.0
20260905120400 21 0 0.0 0.0 0.00 0.00 0.00 42 1015.0
20260905114856 20 0 0.0 0.0 0.00 0.00 0.00 47 1015.1
20260905113353 21 0 0.0 0.0 0.00 0.00 0.00 46 1015.1
20260905111850 22 0 0.0 0.0 0.00 0.00 0.00 42 1014.9
20260905110347 23 0 0.0 0.0 0.00 0.00 0.00 40 1014.7
20260905104843 22 0 0.0 0.0 0.00 0.00 0.00 43 1014.7
20260905103340 23 0 0.0 0.0 0.00 0.00 0.00 40 1014.6
20260905100328 25 0 0.0 0.0 0.00 0.00 0.00 41 1014.4
20260905094825 22 0 0.0 0.0 0.00 0.00 0.00 46 1014.4
20260905093322 21 0 0.0 0.0 0.00 0.00 0.00 51 1014.5
20260905091819 22 0 0.0 0.0 0.00 0.00 0.00 50 1014.3
20260905090315 21 0 0.0 0.0 0.00 0.00 0.00 52 1014.2
20260905084811 22 0 0.0 0.0 0.00 0.00 0.00 51 1014.1
20260905083308 23 0 0.0 0.0 0.00 0.00 0.00 46 1014.3
20260905081805 23 0 0.0 0.0 0.00 0.00 0.00 47 1014.2
20260905080300 23 0 0.0 0.0 0.00 0.00 0.00 48 1014.2
20260905074757 22 0 0.0 0.0 0.00 0.00 0.00 53 1014.1
20260905073254 22 0 0.0 0.0 0.00 0.00 0.00 56 1014.0
20260905071751 19 0 0.0 0.0 0.00 0.00 0.00 64 1013.8
20260905070246 18 0 0.0 0.0 0.00 0.00 0.00 70 1013.6
20260905064743 17 0 0.0 0.0 0.00 0.00 0.00 73 1013.6
20260905063240 17 0 0.0 0.0 0.00 0.00 0.00 75 1013.4
20260905061735 17 0 0.0 0.0 0.00 0.00 0.00 76 1013.2
20260905060232 17 0 0.0 0.0 0.00 0.00 0.00 77 1012.9
20260905054728 17 0 0.0 0.0 0.00 0.00 0.00 79 1013.1
20260905053225 17 0 0.0 0.0 0.00 0.00 0.00 81 1012.8
20260905051721 16 0 0.0 0.0 0.00 0.00 0.00 83 1012.7
20260905050217 16 0 0.0 0.0 0.00 0.00 0.00 85 1012.5
20260905044714 16 0 0.0 0.0 0.00 0.00 0.00 85 1012.1
20260905043211 16 0 0.0 0.0 0.00 0.00 0.00 87 1011.9
20260905041708 16 0 0.0 0.0 0.00 0.00 0.00 88 1011.6
20260905040204 16 0 0.0 0.0 0.00 0.00 0.00 89 1011.5
20260905034701 16 0 0.0 0.0 0.00 0.00 0.00 91 1011.1
20260905033158 16 0 0.0 0.0 0.00 0.00 0.00 91 1011.2
20260905031655 16 0 0.0 0.0 0.00 0.00 0.00 92 1011.0
20260905030151 16 0 0.0 0.0 0.00 0.00 0.00 92 1010.9
20260905024648 16 0 0.0 0.0 0.00 0.00 0.00 92 1010.7
20260905023139 16 0 0.0 0.0 0.00 0.00 0.00 92 1010.7
20260905021636 16 0 0.0 0.0 0.00 0.00 0.00 92 1010.8
20260905020132 16 0 0.0 0.0 0.00 0.00 0.00 91 1009.9
20260905014628 16 0 0.0 0.0 0.00 0.00 0.00 91 1010.4
20260905013125 16 0 0.0 0.0 0.00 0.00 0.00 90 1010.4
20260905011622 16 0 0.0 0.0 0.00 0.00 0.00 88 1009.8
20260905010118 16 0 0.0 0.0 0.00 0.00 0.00 88 1010.1
20260905004615 17 0 0.0 0.0 0.00 0.00 0.00 88 1009.7
20260905003112 17 0 0.0 0.0 0.00 0.00 0.00 88 1009.5
20260905001608 17 0 0.0 0.0 0.00 0.00 0.00 89 1009.4
20260905000105 18 0 0.0 0.0 0.00 0.00 0.00 86 1009.4
20260904234602 18 0 0.0 0.0 0.00 0.00 0.00 87 1008.6
20260904233059 18 0 0.0 0.0 0.00 0.00 0.00 89 1008.4
20260904231556 18 0 0.0 0.0 0.00 0.00 0.00 90 1008.5
20260904230052 18 0 0.0 0.0 0.00 0.00 0.00 88 1008.4
20260904224549 18 0 0.0 0.0 0.00 0.00 0.00 89 1008.2